Location: Perryvale
(54.4667°N, 113.3833°W)
Time: 10:58:27
(UTC+00:00)

SR - Visible Passes

Search period start: 19 May 2024 00:00
Search period end: 29 May 2024 00:00
Orbit: 579 x 860 km, 66.7° (Epoch: 18 May)

Date Brightness Start Highest point End Pass type
(mag) Time Alt. Az. Time Alt. Az. Time Alt. Az.
19 May ? 04:58:10 10° W 05:02:18 26° NNW 05:06:11 10° NNE visible
19 May ? 06:42:24 10° NW 06:45:36 18° N 06:48:41 10° NE visible
19 May ? 08:25:00 10° NNW 08:28:53 27° NNE 08:32:36 10° E visible
19 May ? 10:06:49 10° NW 10:11:16 85° SW 10:15:31 10° SE visible
20 May ? 05:49:23 10° NW 05:52:45 19° N 05:55:59 10° NE visible
20 May ? 07:32:39 10° NNW 07:36:10 21° NNE 07:39:32 10° ENE visible
20 May ? 09:14:33 10° NW 09:18:57 55° NE 09:23:08 10° ESE visible
21 May ? 04:56:12 10° WNW 04:59:57 22° NNW 05:03:31 10° NNE visible
21 May ? 06:40:06 10° NW 06:43:21 18° N 06:46:27 10° NE visible
21 May ? 08:22:19 10° NW 08:26:27 34° NNE 08:30:23 10° E visible
21 May ? 10:04:13 10° NW 10:08:31 55° SW 10:12:38 10° SSE visible
22 May ? 05:47:17 10° NW 05:50:29 18° N 05:53:33 10° NE visible
22 May ? 07:30:03 10° NNW 07:33:48 25° NNE 07:37:24 10° E visible
22 May ? 09:11:52 10° NW 09:16:19 81° NE 09:20:33 10° SE visible
23 May ? 04:54:12 10° WNW 04:57:38 19° NNW 05:00:54 10° NE visible
23 May ? 06:37:39 10° NW 06:41:02 20° NNE 06:44:17 10° ENE visible
23 May ? 08:19:36 10° NW 08:23:56 47° NE 08:28:02 10° ESE visible
23 May ? 10:01:42 10° NW 10:05:39 34° WSW 10:09:29 10° S visible
24 May ? 05:45:01 10° NW 05:48:11 18° N 05:51:14 10° NE visible
24 May ? 07:27:21 10° NNW 07:31:22 31° NNE 07:35:12 10° E visible
24 May ? 09:09:12 10° NW 09:13:34 66° SW 09:17:45 10° SSE visible
25 May ? 04:52:07 10° NW 04:55:19 18° N 04:58:23 10° NE visible
25 May ? 06:35:03 10° NNW 06:38:40 23° NNE 06:42:08 10° ENE visible
25 May ? 08:16:53 10° NW 08:21:17 68° NE 08:25:30 10° SE visible
25 May ? 09:59:21 10° WNW 10:02:41 22° WSW 10:05:56 10° SSW visible
26 May ? 05:42:35 10° NW 05:45:51 19° N 05:49:01 10° ENE visible
26 May ? 07:24:37 10° NW 07:28:50 41° NE 07:32:53 10° ESE visible
26 May ? 09:06:36 10° NW 09:10:42 41° WSW 09:14:37 10° SSE visible
27 May ? 04:49:52 10° NW 04:52:59 18° N 04:55:59 10° NE visible
27 May ? 06:32:21 10° NNW 06:36:13 28° NNE 06:39:56 10° E visible
27 May ? 08:14:09 10° NW 08:18:33 80° SW 08:22:43 10° SE visible
27 May ? 09:57:28 10° WNW 09:59:36 14° WSW 10:01:43 10° SW visible
28 May ? 05:40:00 10° NNW 05:43:29 21° NNE 05:46:50 10° ENE visible
28 May ? 07:21:51 10° NW 07:26:12 58° NE 07:30:23 10° ESE visible
28 May ? 09:04:08 10° WNW 09:07:44 26° WSW 09:10:09 16° SSW visible
